Kenai, AK

9:28 AM AKDT on May 23, 2017 (GMT -0800)
Kenai Municipal

Weather History for PAEN - July, 2013

Change the Weather History Date:

Tuesday, July 9, 2013

  Actual Average Record
Temperature  
Mean Temperature 52 °F -  
Max Temperature 57 °F 62 °F 79 °F (2004)
Min Temperature 48 °F 47 °F 36 °F (2012)
Degree Days  
Heating Degree Days 12    
Growing Degree Days 2 (Base 50)    
Moisture  
Dew Point 46 °F    
Average Humidity 75    
Maximum Humidity 86    
Minimum Humidity 64    
Precipitation  
Precipitation 0.00 in - - ()
Sea Level Pressure  
Sea Level Pressure 29.97 in    
Wind  
Wind Speed 8 mph (SSW)    
Max Wind Speed 16 mph    
Max Gust Speed -    
Visibility 10 miles    
Events      
Averages and records for this station are not official NWS values.
T = Trace of Precipitation, MM = Missing Value Source: NWS Daily Summary

Daily Weather History Graph

Daily Weather History Graph

Search for Another Location

Airport or City:

Trip Planner

Search our weather history database for the weather conditions in past years. The results will help you decide how hot, cold, wet, or windy it might be!

Date:

Astronomy

Jul. 09, 2013 Rise Set
Actual Time 4:52 AM AKDT 11:26 PM AKDT
Civil Twilight 3:17 AM AKDT 12:59 AM AKDT
Nautical Twilight Sun does not set Sun does not set
Astronomical Twilight Sun does not set Sun does not set
Moon 7:15 AM AKDT (7/9) 11:10 PM AKDT (7/9)
Length of Visible Light 21h 41m
Length of Day
18h 33m
New Moon, 2% of the Moon is Illuminated
Jul 9
New Moon
Jul 15
First Quarter
Jul 22
Full
Jul 29
Last Quarter
Aug 6
New

Hourly Weather History & Observations

Time (AKDT) Temp. Dew Point Humidity Pressure Visibility Wind Dir Wind Speed Gust Speed Precip Events Conditions
12:53 AM 51.1 °F 44.1 °F 77% 29.85 in 10.0 mi South 10.4 mph - N/A   Overcast
1:53 AM 50.0 °F 44.1 °F 80% 29.86 in 10.0 mi South 8.1 mph - N/A   Overcast
2:53 AM 50.0 °F 43.0 °F 77% 29.88 in 10.0 mi South 6.9 mph - N/A   Overcast
3:53 AM 48.9 °F 44.1 °F 83% 29.89 in 10.0 mi SSE 3.5 mph - N/A   Overcast
4:53 AM 48.0 °F 44.1 °F 86% 29.90 in 10.0 mi Calm Calm - N/A   Overcast
5:53 AM 48.9 °F 44.1 °F 83% 29.91 in 10.0 mi Calm Calm - N/A   Overcast
6:53 AM 50.0 °F 44.1 °F 80% 29.91 in 10.0 mi South 3.5 mph - N/A   Overcast
7:53 AM 48.9 °F 44.1 °F 83% 29.94 in 10.0 mi Calm Calm - N/A   Mostly Cloudy
8:53 AM 51.1 °F 44.1 °F 77% 29.95 in 10.0 mi SW 3.5 mph - N/A   Mostly Cloudy
9:53 AM 53.1 °F 44.1 °F 71% 29.97 in 10.0 mi South 6.9 mph - N/A   Scattered Clouds
10:53 AM 52.0 °F 46.0 °F 80% 29.98 in 10.0 mi SSW 8.1 mph - N/A   Overcast
11:53 AM 54.0 °F 46.0 °F 75% 29.99 in 10.0 mi WSW 9.2 mph - N/A   Partly Cloudy
12:53 PM 55.9 °F 46.0 °F 69% 30.01 in 10.0 mi SW 9.2 mph - N/A   Clear
1:53 PM 57.0 °F 45.0 °F 64% 30.01 in 10.0 mi SW 9.2 mph - N/A   Clear
2:53 PM 57.0 °F 46.0 °F 67% 30.02 in 10.0 mi SW 10.4 mph - N/A   Clear
3:53 PM 57.0 °F 46.9 °F 69% 30.02 in 10.0 mi SW 12.7 mph - N/A   Clear
4:53 PM 55.9 °F 46.9 °F 72% 30.04 in 10.0 mi SW 11.5 mph - N/A   Clear
5:53 PM 55.9 °F 48.9 °F 77% 30.03 in 10.0 mi SSW 11.5 mph - N/A   Clear
6:53 PM 55.0 °F 48.0 °F 77% 30.04 in 10.0 mi SSW 13.8 mph - N/A   Clear
7:53 PM 55.9 °F 46.9 °F 72% 30.04 in 10.0 mi SSW 16.1 mph - N/A   Clear
8:53 PM 55.9 °F 48.0 °F 75% 30.03 in 10.0 mi SSW 11.5 mph - N/A   Clear
9:53 PM 55.9 °F 48.0 °F 75% 30.03 in 10.0 mi SSW 11.5 mph - N/A   Clear
10:53 PM 57.0 °F 45.0 °F 64% 30.04 in 10.0 mi South 6.9 mph - N/A   Clear
11:53 PM 55.0 °F 46.0 °F 72% 30.04 in 10.0 mi South 9.2 mph - N/A   Clear